This is the latest recevied weather packets stored in our database for station/object N5PRN. If no packets are shown the sender has not sent any weather packets the latest 10 day(s).
| Time | Temp. | Humidity | Pressure | Rain* | Wind** | Luminosity | Snow |
|---|---|---|---|---|---|---|---|
| 1777578606 | 17.22° C | 96% | 1012.9 hPa | 0 mm | - | 49 W/m² | - |
| 1777577697 | 17.22° C | 96% | 1012.7 hPa | 0 mm | - | 52 W/m² | - |
| 1777577394 | 17.22° C | 96% | 1012.4 hPa | 0 mm | - | 73 W/m² | - |
| 1777577090 | 17.22° C | 96% | 1012.5 hPa | 0 mm | - | 77 W/m² | - |
| 1777576486 | 17.22° C | 96% | 1012.4 hPa | 0 mm | - | 57 W/m² | - |
| 1777575576 | 17.22° C | 96% | 1012.4 hPa | 0 mm | - | 108 W/m² | - |
| 1777575272 | 17.22° C | 96% | 1012.1 hPa | 0 mm | - | 113 W/m² | - |
| 1777574361 | 17.22° C | 96% | 1012.3 hPa | 0 mm | - | 99 W/m² | - |
| 1777574056 | 17.22° C | 96% | 1012.7 hPa | 0 mm | - | 144 W/m² | - |
| 1777572840 | 17.22° C | 96% | 1012.6 hPa | 0 mm | - | 135 W/m² | - |
| 1777572536 | 17.22° C | 96% | 1012.3 hPa | 0 mm | - | 189 W/m² | - |
| 1777572231 | 17.22° C | 96% | 1012.3 hPa | 0 mm | - | 295 W/m² | - |
| 1777571622 | 16.67° C | 96% | 1013 hPa | 0 mm | - | 167 W/m² | - |
| 1777570712 | 16.67° C | 96% | 1013.3 hPa | 0 mm | - | 106 W/m² | - |
| 1777563123 | 16.67° C | 99% | 1013.9 hPa | 0 mm | - | 81 W/m² | - |
| 1777562214 | 16.67° C | 99% | 1013.6 hPa | 0 mm | - | 105 W/m² | - |
| 1777561912 | 16.67° C | 99% | 1013.5 hPa | 0 mm | - | 106 W/m² | - |
| 1777557670 | 16.67° C | 99% | 1013.3 hPa | 0 mm | - | 34 W/m² | - |
| 1777557063 | 16.67° C | 99% | 1013.1 hPa | 1.27 mm | - | 29 W/m² | - |
| 1777556759 | 16.67° C | 99% | 1013.3 hPa | 3.05 mm | - | 22 W/m² | - |
| 1777555851 | 16.67° C | 99% | 1013.1 hPa | 0 mm | - | 50 W/m² | - |
| 1777555546 | 16.67° C | 99% | 1013.1 hPa | 0 mm | - | 36 W/m² | - |
| 1777554940 | 16.67° C | 99% | 1013.1 hPa | 0 mm | - | 66 W/m² | - |
| 1777554637 | 16.67° C | 99% | 1013.1 hPa | 0 mm | - | 52 W/m² | - |
| 1777554334 | 16.67° C | 99% | 1012.9 hPa | 0 mm | - | 33 W/m² | - |
* Rain latest hour (hover to see other rain measurements)
** Current wind speed in m/s (hover to see current wind gust speed)